GW4488 Weather Reports


time (UTC)temp
C
wind
direction
speed
KPH
gust
KPH
rain 1hr
cm
rain 24hr
cm
rain mn
cm
humidity
%
barometer
mb
20260506044920 7 283 1.6 3.2 0.00 0.00 0.00 99 1039.2
20260506044418 7 255 3.2 4.8 0.00 0.00 0.00 99 1039.0
20260506043915 7 255 1.6 3.2 0.00 0.00 0.00 99 1039.4
20260506043412 8 270 3.2 4.8 0.00 0.00 0.00 99 1039.4
20260506042910 8 270 1.6 3.2 0.00 0.00 0.00 99 1039.5
20260506042409 8 248 3.2 3.2 0.00 0.00 0.00 99 1039.3
20260506041906 8 270 3.2 4.8 0.00 0.00 0.00 98 1039.3
20260506041404 8 276 1.6 3.2 0.00 0.00 0.00 97 1039.2
20260506040901 8 266 3.2 4.8 0.00 0.00 0.00 97 1039.2
20260506040358 8 283 3.2 4.8 0.00 0.00 0.00 96 1039.1
20260506035854 9 289 3.2 4.8 0.00 0.48 0.48 96 1039.0
20260506035352 9 279 3.2 4.8 0.00 0.48 0.48 96 1039.1
20260506034849 9 270 1.6 4.8 0.00 0.48 0.48 95 1039.0
20260506034346 9 270 3.2 4.8 0.00 0.48 0.48 96 1039.1
20260506033843 9 282 3.2 4.8 0.00 0.48 0.48 95 1039.3
20260506033340 10 257 3.2 4.8 0.00 0.48 0.48 95 1039.3
20260506032837 10 270 3.2 4.8 0.00 0.48 0.48 95 1039.1
20260506032333 10 265 3.2 4.8 0.00 0.48 0.48 94 1039.3
20260506031830 10 261 4.8 4.8 0.00 0.48 0.48 94 1039.5
20260506031328 10 243 9.7 9.7 0.00 0.48 0.48 95 1039.6
20260506030825 10 233 3.2 6.4 0.00 0.48 0.48 94 1039.8
20260506030323 10 257 4.8 4.8 0.00 0.48 0.48 95 1039.4
20260506025819 10 265 3.2 4.8 0.00 0.48 0.48 95 1039.5
20260506025316 10 270 3.2 4.8 0.00 0.48 0.48 95 1039.5
20260506024813 10 270 1.6 4.8 0.00 0.48 0.48 95 1039.8
20260506024310 10 265 3.2 4.8 0.00 0.48 0.48 95 1039.8
20260506023806 10 278 3.2 4.8 0.00 0.48 0.48 95 1039.9
20260506023303 10 264 3.2 4.8 0.00 0.48 0.48 94 1039.6
20260506022759 10 270 3.2 3.2 0.00 0.48 0.48 94 1040.1
20260506022258 10 241 3.2 4.8 0.00 0.48 0.48 93 1040.1
20260506021755 10 282 1.6 4.8 0.00 0.48 0.48 92 1040.3
20260506021252 10 251 4.8 4.8 0.00 0.48 0.48 93 1040.1
20260506020749 10 282 1.6 4.8 0.00 0.48 0.48 93 1039.8
20260506020247 11 270 3.2 4.8 0.00 0.48 0.48 91 1040.0
20260506015744 11 270 4.8 8.0 0.00 0.48 0.48 90 1039.9
20260506015241 10 250 4.8 9.7 0.00 0.48 0.48 91 1039.4
20260506014738 11 279 3.2 4.8 0.00 0.48 0.48 93 1039.2
20260506014235 11 292 6.4 8.0 0.00 0.48 0.48 92 1039.3
20260506013732 11 270 1.6 11.3 0.00 0.48 0.48 91 1039.3
20260506013229 11 250 8.0 9.7 0.00 0.48 0.48 91 1039.2
20260506012725 11 273 4.8 11.3 0.00 0.48 0.48 92 1039.0
20260506012222 11 248 4.8 4.8 0.00 0.48 0.48 91 1039.0
20260506011720 11 278 8.0 9.7 0.00 0.48 0.48 90 1038.8
20260506011215 11 253 4.8 12.9 0.00 0.48 0.48 89 1038.8
20260506010714 12 233 6.4 14.5 0.00 0.48 0.48 89 1039.0
20260506010211 12 266 4.8 9.7 0.00 0.48 0.48 91 1038.5
20260506005708 12 281 4.8 17.7 0.00 0.48 0.48 88 1038.7
20260506005205 12 240 4.8 4.8 0.00 0.48 0.48 89 1038.4
20260506004655 12 279 3.2 22.5 0.00 0.48 0.48 90 1038.4
20260506004153 12 290 3.2 9.7 0.00 0.48 0.48 88 1038.7
20260506003649 13 229 12.9 12.9 0.00 0.48 0.48 88 1038.6
20260506003146 13 270 4.8 8.0 0.00 0.48 0.48 92 1038.6
20260506002641 13 261 3.2 6.4 0.00 0.48 0.48 94 1038.3
20260506002138 14 266 8.0 8.0 0.05 0.48 0.48 99 1038.3
20260506001633 15 266 8.0 136.8 0.05 0.48 0.48 99 1037.9
20260506001131 15 266 8.0 12.9 0.00 0.46 0.46 99 1038.0
20260506000628 15 275 4.8 6.4 0.00 0.46 0.46 97 1037.7
20260506000125 15 270 4.8 6.4 0.00 0.46 0.46 98 1038.0
20260505235623 15 274 3.2 4.8 0.00 0.46 0.46 99 1037.8
20260505235120 15 255 4.8 6.4 0.00 0.46 0.46 99 1037.8
20260505234617 15 270 3.2 6.4 0.00 0.46 0.46 99 1037.6
20260505234114 15 263 4.8 6.4 0.00 0.46 0.46 99 1037.4
20260505233612 15 246 4.8 6.4 0.00 0.46 0.46 99 1037.3
20260505233109 15 265 3.2 6.4 0.00 0.46 0.46 99 1037.0
20260505232606 15 234 4.8 4.8 0.00 0.46 0.46 99 1037.0
20260505232104 15 233 4.8 8.0 0.00 0.46 0.46 99 1036.9
20260505231600 15 254 4.8 6.4 0.00 0.46 0.46 99 1036.7
20260505231059 15 254 4.8 8.0 0.00 0.46 0.46 99 1036.7
20260505230556 15 237 6.4 8.0 0.00 0.46 0.46 99 1036.8
20260505230052 15 238 4.8 6.4 0.00 0.46 0.46 98 1036.5
20260505225549 15 227 4.8 6.4 0.00 0.46 0.46 98 1036.5
20260505225045 15 230 4.8 6.4 0.00 0.46 0.46 98 1036.4
20260505224543 15 225 4.8 8.0 0.05 0.46 0.46 97 1036.3
20260505224040 16 238 4.8 6.4 0.05 0.46 0.46 96 1036.4
20260505223537 16 225 4.8 6.4 0.05 0.46 0.46 95 1036.4
20260505223033 16 237 4.8 6.4 0.05 0.46 0.46 92 1036.3
20260505222529 17 237 6.4 14.5 0.00 0.46 0.46 87 1036.2
20260505222025 17 242 4.8 11.3 0.00 0.46 0.46 86 1036.3
20260505221523 18 233 4.8 9.7 0.00 0.46 0.46 84 1036.0
20260505221019 18 270 9.7 9.7 0.00 0.46 0.46 92 1036.4
20260505220517 19 241 4.8 6.4 0.00 0.46 0.46 95 1035.8
20260505220015 19 232 4.8 8.0 0.00 0.46 0.46 92 1035.5
20260505215512 20 270 3.2 8.0 0.00 0.46 0.46 92 1035.4
20260505215010 20 229 4.8 6.4 0.00 0.46 0.46 91 1035.3
20260505214508 20 270 4.8 6.4 0.00 0.46 0.46 88 1035.4
20260505214004 21 263 6.4 6.4 0.00 0.46 0.46 89 1035.2
20260505213502 21 247 3.2 4.8 0.00 0.46 0.46 88 1035.4
20260505212958 21 270 3.2 6.4 0.00 0.46 0.46 87 1035.9
20260505212455 21 236 3.2 4.8 0.00 0.46 0.46 88 1035.4
20260505211952 21 263 4.8 4.8 0.00 0.46 0.46 88 1035.4
20260505211449 21 274 3.2 4.8 0.00 0.46 0.46 86 1035.2
20260505210945 21 251 3.2 6.4 0.00 0.46 0.46 85 1035.4
20260505210442 21 254 3.2 4.8 0.00 0.46 0.46 88 1035.0
20260505205939 21 266 4.8 8.0 0.00 0.46 0.46 88 1034.9
20260505205438 20 244 4.8 6.4 0.00 0.46 0.46 89 1035.1
20260505204934 20 260 4.8 6.4 0.00 0.46 0.46 91 1035.2
20260505204432 20 270 3.2 4.8 0.00 0.46 0.46 92 1035.3
20260505203929 20 281 4.8 4.8 0.00 0.46 0.46 94 1035.5
20260505203425 20 263 1.6 4.8 0.00 0.46 0.46 93 1035.6
20260505202922 20 270 3.2 4.8 0.00 0.46 0.46 93 1035.6
20260505202418 20 266 3.2 6.4 0.00 0.46 0.46 92 1035.9
20260505201915 20 287 3.2 6.4 0.00 0.46 0.46 93 1035.8
20260505201412 20 233 3.2 9.7 0.00 0.46 0.46 91 1035.9
20260505200910 18 270 1.6 4.8 0.00 0.46 0.46 97 1035.9
20260505200407 18 250 4.8 4.8 0.00 0.46 0.46 98 1036.0
20260505195902 17 240 4.8 4.8 0.00 0.46 0.46 99 1036.4
20260505195400 16 281 4.8 6.4 0.00 0.46 0.46 99 1036.2
20260505194857 16 270 4.8 4.8 0.00 0.46 0.46 99 1036.3
20260505194354 16 241 3.2 4.8 0.00 0.46 0.46 99 1036.5
20260505193854 16 248 3.2 4.8 0.13 0.46 0.46 99 1036.6
20260505193353 16 239 4.8 6.4 0.13 0.43 0.43 99 1037.0
20260505192850 16 274 3.2 4.8 0.05 0.43 0.43 99 1036.7
20260505192348 16 252 3.2 8.0 0.23 0.43 0.43 99 1036.8
20260505191845 16 270 0.0 6.4 0.30 0.41 0.41 99 1036.8
20260505191344 17 266 4.8 4.8 0.30 0.38 0.38 98 1036.8
20260505190840 17 266 4.8 4.8 0.30 0.36 0.36 97 1036.7
20260505190336 17 270 1.6 4.8 0.05 0.30 0.30 95 1036.6
20260505185831 17 270 3.2 4.8 0.05 0.30 0.30 95 1036.0
20260505185328 18 250 3.2 4.8 0.18 0.30 0.30 93 1035.8
20260505184824 18 260 3.2 4.8 0.61 0.28 0.28 92 1035.6
20260505184321 19 265 3.2 6.4 0.71 0.25 0.25 84 1035.6
20260505183819 21 290 6.4 11.3 0.18 0.18 0.18 64 1035.0
20260505183315 22 263 4.8 9.7 0.00 0.15 0.15 56 1034.5
20260505182812 23 270 4.8 6.4 0.00 0.15 0.15 55 1034.5
20260505182309 23 270 3.2 4.8 0.00 0.15 0.15 52 1034.3
20260505181806 23 244 4.8 12.9 0.00 0.15 0.15 53 1034.4
20260505181303 24 270 4.8 4.8 0.00 0.15 0.15 52 1034.4
20260505180759 24 274 4.8 8.0 0.00 0.15 0.15 49 1034.1
20260505180256 24 241 3.2 9.7 0.00 0.15 0.15 52 1034.6
20260505175752 25 270 3.2 4.8 0.00 0.15 0.15 52 1034.5
20260505175249 25 270 3.2 12.9 0.00 0.15 0.15 50 1034.6
20260505174745 25 254 6.4 14.5 0.00 0.15 0.15 48 1034.6
20260505174243 25 263 8.0 14.5 0.00 0.15 0.15 49 1034.6
20260505173738 25 290 3.2 6.4 0.00 0.15 0.15 48 1035.0
20260505173235 24 262 3.2 6.4 0.00 0.15 0.15 54 1035.1
20260505172732 23 254 3.2 8.0 0.00 0.15 0.15 55 1035.1
20260505172229 23 306 1.6 11.3 0.00 0.15 0.15 52 1035.4
20260505171729 23 286 3.2 8.0 0.00 0.15 0.15 55 1035.4
20260505171227 22 298 11.3 11.3 0.00 0.15 0.15 55 1035.3
20260505170723 22 279 3.2 9.7 0.00 0.15 0.15 58 1035.1
20260505170220 22 247 3.2 8.0 0.00 0.15 0.15 52 1035.2
20260505165715 23 270 3.2 9.7 0.00 0.15 0.15 54 1035.5
20260505165212 23 270 1.6 8.0 0.00 0.15 0.15 55 1035.6
20260505164707 23 285 4.8 17.7 0.00 0.15 0.15 53 1035.1
20260505164204 23 198 0.0 6.4 0.00 0.15 0.15 50 1035.0
20260505163703 23 279 3.2 8.0 0.00 0.15 0.15 56 1035.0
20260505163201 23 274 4.8 17.7 0.00 0.15 0.15 54 1034.9
20260505162658 23 169 3.2 12.9 0.00 0.15 0.15 51 1034.7
20260505162155 23 135 3.2 14.5 0.00 0.15 0.15 55 1035.1
20260505161652 23 332 3.2 12.9 0.00 0.15 0.15 52 1034.6
20260505161149 23 257 14.5 14.5 0.00 0.15 0.15 50 1035.0
20260505160647 23 192 8.0 17.7 0.00 0.15 0.15 50 1035.2
20260505160144 23 261 3.2 8.0 0.00 0.15 0.15 53 1035.1
20260505153123 24 270 3.2 11.3 0.00 0.15 0.15 53 1035.6
20260505152620 25 319 3.2 11.3 0.00 0.15 0.15 53 1035.5
20260505152116 25 279 3.2 9.7 0.00 0.15 0.15 54 1035.4
20260505151611 24 261 3.2 9.7 0.00 0.15 0.15 51 1035.4
20260505151109 24 225 6.4 9.7 0.00 0.15 0.15 50 1035.3
20260505150605 24 249 16.1 17.7 0.00 0.15 0.15 51 1035.2
20260505140530 23 245 3.2 4.8 0.00 0.15 0.15 62 1035.2
20260505124944 18 265 3.2 4.8 0.00 0.15 0.15 84 1036.1
20260505124441 18 249 6.4 6.4 0.00 0.15 0.15 78 1036.0
20260505123937 17 292 0.0 9.7 0.00 0.15 0.15 85 1035.9
20260505123433 17 247 6.4 6.4 0.00 0.15 0.15 83 1036.3
20260505122929 16 293 6.4 8.0 0.00 0.15 0.15 83 1036.4
20260505122427 15 294 1.6 8.0 0.00 0.15 0.15 89 1036.4
20260505121923 15 250 3.2 8.0 0.00 0.15 0.15 91 1036.2
20260505121421 14 270 3.2 8.0 0.00 0.15 0.15 91 1036.4
20260505120916 13 275 3.2 6.4 0.00 0.15 0.15 93 1036.3
20260505120413 13 255 1.6 8.0 0.00 0.15 0.15 91 1036.3
20260505115912 13 243 3.2 6.4 0.00 0.15 0.15 93 1036.4
20260505115409 13 276 1.6 4.8 0.00 0.15 0.15 95 1036.5
20260505114907 12 270 0.0 8.0 0.00 0.15 0.15 98 1036.4
20260505114403 12 331 4.8 4.8 0.00 0.15 0.15 99 1036.1
20260505113859 12 257 3.2 6.4 0.00 0.15 0.15 99 1036.2
20260505113356 12 283 3.2 4.8 0.00 0.15 0.15 99 1036.2
20260505112852 12 278 3.2 4.8 0.00 0.15 0.15 99 1036.2
20260505112350 12 255 3.2 6.4 0.00 0.15 0.15 99 1036.2
20260505111845 12 279 3.2 4.8 0.00 0.15 0.15 99 1035.8
20260505111340 12 270 3.2 4.8 0.00 0.15 0.15 99 1035.6
20260505110837 11 216 3.2 6.4 0.00 0.15 0.15 99 1036.2
20260505110334 11 264 3.2 3.2 0.00 0.15 0.15 99 1036.2
20260505101809 12 276 1.6 4.8 0.00 0.15 0.15 99 1035.4
20260505101304 12 249 1.6 4.8 0.00 0.15 0.15 99 1035.0
20260505100801 12 247 4.8 4.8 0.23 0.15 0.15 98 1035.3
20260505100257 13 252 4.8 4.8 0.84 0.15 0.15 95 1035.5
20260505095753 13 242 4.8 8.0 0.48 0.08 0.08 91 1036.2
20260505095251 14 303 6.4 29.0 0.00 0.00 0.00 82 1036.9
20260505094746 12 246 1.6 6.4 0.00 0.00 0.00 82 1036.4
20260505094243 12 326 3.2 4.8 0.00 0.00 0.00 82 1036.1
20260505093739 12 250 3.2 4.8 0.00 0.00 0.00 83 1035.9
20260505093237 11 281 3.2 4.8 0.00 0.00 0.00 85 1035.6
20260505092734 11 229 3.2 4.8 0.00 0.00 0.00 85 1036.0
20260505092232 11 246 1.6 4.8 0.00 0.00 0.00 86 1035.5
20260505091729 11 210 3.2 4.8 0.00 0.00 0.00 86 1035.3
20260505091228 11 240 4.8 4.8 0.00 0.00 0.00 85 1035.4
20260505090725 11 248 3.2 6.4 0.00 0.00 0.00 84 1035.5
20260505090223 11 290 3.2 4.8 0.00 0.00 0.00 84 1035.3
20260505085720 11 231 3.2 4.8 0.00 0.00 0.00 84 1035.2
20260505085218 11 264 1.6 4.8 0.00 0.00 0.00 84 1035.2
20260505084715 11 270 3.2 4.8 0.00 0.00 0.00 84 1035.0
20260505084214 11 266 3.2 4.8 0.00 0.00 0.00 84 1035.2
20260505083710 11 246 4.8 4.8 0.00 0.00 0.00 84 1035.1
20260505083207 11 312 3.2 4.8 0.00 0.00 0.00 83 1035.1
20260505082703 12 270 3.2 4.8 0.00 0.00 0.00 83 1035.1
20260505082201 12 251 4.8 4.8 0.00 0.00 0.00 82 1035.3
20260505081656 12 278 3.2 4.8 0.00 0.00 0.00 81 1035.2
20260505081154 12 266 3.2 4.8 0.00 0.00 0.00 80 1035.3
20260505080651 12 262 0.0 4.8 0.00 0.00 0.00 80 1034.9
20260505080146 12 264 3.2 6.4 0.00 0.00 0.00 80 1035.1
20260505075642 12 297 1.6 8.0 0.00 0.00 0.00 81 1035.1
20260505075139 12 275 3.2 4.8 0.00 0.00 0.00 82 1035.0
20260505074636 12 239 3.2 4.8 0.00 0.00 0.00 82 1035.2
20260505074133 12 255 3.2 8.0 0.00 0.00 0.00 80 1035.0
20260505073631 13 270 3.2 4.8 0.00 0.00 0.00 80 1035.1
20260505073129 13 246 4.8 8.0 0.00 0.00 0.00 78 1034.9
20260505072624 12 231 3.2 4.8 0.00 0.00 0.00 80 1035.0
20260505072121 12 248 3.2 4.8 0.00 0.00 0.00 80 1034.8
20260505071617 12 5 4.8 4.8 0.00 0.00 0.00 81 1034.9
20260505071115 12 260 3.2 9.7 0.00 0.00 0.00 81 1034.8
20260505070612 12 215 1.6 4.8 0.00 0.00 0.00 82 1034.9
20260505070108 12 270 3.2 4.8 0.00 0.00 0.00 81 1035.0
20260505065604 12 243 1.6 9.7 0.00 0.00 0.00 80 1035.2
20260505065101 12 206 3.2 3.2 0.00 0.00 0.00 81 1035.2
20260505064558 12 246 3.2 4.8 0.00 0.00 0.00 83 1035.3
20260505064056 12 258 1.6 4.8 0.00 0.00 0.00 83 1035.4
20260505063553 12 251 4.8 4.8 0.00 0.00 0.00 83 1035.4
20260505063049 11 279 3.2 4.8 0.00 0.00 0.00 84 1035.4
20260505062545 11 297 1.6 6.4 0.00 0.00 0.00 83 1035.4
20260505062043 11 259 3.2 4.8 0.00 0.00 0.00 84 1035.5
20260505061540 11 240 3.2 4.8 0.00 0.00 0.00 83 1035.4
20260505061038 12 277 1.6 4.8 0.00 0.00 0.00 82 1035.3
20260505060535 12 263 1.6 4.8 0.00 0.00 0.00 82 1035.3
20260505060032 11 243 1.6 4.8 0.00 0.00 0.00 82 1035.1
20260505055527 12 266 4.8 4.8 0.00 0.00 0.00 81 1035.5
20260505055024 12 254 3.2 3.2 0.00 0.00 0.00 81 1035.3
20260505054521 12 258 3.2 6.4 0.00 0.00 0.00 81 1035.4
20260505054020 12 230 3.2 4.8 0.00 0.00 0.00 80 1035.3
20260505053516 12 255 4.8 4.8 0.00 0.00 0.00 81 1035.4
20260505053013 12 260 4.8 6.4 0.00 0.00 0.00 79 1035.4
20260505052510 12 251 4.8 4.8 0.00 0.00 0.00 80 1035.6
20260505052008 12 270 3.2 6.4 0.00 0.00 0.00 79 1035.4
20260505051504 12 246 3.2 4.8 0.00 0.00 0.00 78 1035.6
20260505051003 12 330 3.2 8.0 0.00 0.00 0.00 76 1035.5
20260505050500 12 232 6.4 6.4 0.00 0.00 0.00 79 1035.6